TimeCST,TemperatureF,Dew PointF,Humidity,Sea Level PressureIn,VisibilityMPH,Wind Direction,Wind SpeedMPH,Gust SpeedMPH,PrecipitationIn,Events,Conditions,WindDirDegrees,DateUTC
12:53 AM,1.9,-2.9,80,30.37,10.0,WSW,3.5,-,N/A,,Overcast,240,2013-01-15 06:53:00
1:53 AM,3.0,-0.9,84,30.37,10.0,Calm,Calm,-,N/A,,Mostly Cloudy,0,2013-01-15 07:53:00
2:53 AM,-0.0,-4.0,83,30.37,10.0,Calm,Calm,-,N/A,,Partly Cloudy,0,2013-01-15 08:53:00
3:20 AM,3.2,-0.4,85,30.25,10.0,South,3.5,-,N/A,,Mostly Cloudy,180,2013-01-15 09:20:00
3:53 AM,3.9,-0.0,84,30.35,10.0,South,3.5,-,N/A,,Overcast,170,2013-01-15 09:53:00
4:03 AM,5.0,-0.4,78,30.23,10.0,South,3.5,-,N/A,,Overcast,180,2013-01-15 10:03:00
4:53 AM,6.1,1.0,80,30.32,10.0,South,5.8,-,N/A,,Overcast,190,2013-01-15 10:53:00
5:53 AM,7.0,1.9,80,30.30,10.0,South,4.6,-,N/A,,Overcast,170,2013-01-15 11:53:00
6:53 AM,9.0,5.0,84,30.30,10.0,SSW,6.9,-,N/A,,Clear,200,2013-01-15 12:53:00
7:53 AM,9.0,5.0,84,30.30,8.0,SSW,10.4,-,N/A,,Clear,210,2013-01-15 13:53:00
8:53 AM,10.9,7.0,84,30.30,9.0,SW,11.5,-,N/A,,Clear,220,2013-01-15 14:53:00
9:53 AM,15.1,9.0,77,30.28,10.0,SW,15.0,20.7,N/A,,Clear,230,2013-01-15 15:53:00
10:53 AM,-9999,-9999,N/A,30.16,-9999.0,North,-9999.0,-,N/A,,Unknown,0,2013-01-15 16:53:00
11:53 AM,-9999,-9999,N/A,30.13,-9999.0,North,-9999.0,-,N/A,,Unknown,0,2013-01-15 17:53:00
12:53 PM,23.0,10.0,58,30.20,10.0,WSW,11.5,-,N/A,,Clear,240,2013-01-15 18:53:00
1:53 PM,25.0,9.0,51,30.17,10.0,SW,8.1,17.3,N/A,,Clear,230,2013-01-15 19:53:00
2:53 PM,26.1,8.1,47,30.16,10.0,SSW,10.4,-,N/A,,Clear,210,2013-01-15 20:53:00
3:53 PM,25.0,7.0,46,30.15,10.0,SW,11.5,-,N/A,,Clear,220,2013-01-15 21:53:00
4:53 PM,21.9,9.0,58,30.14,10.0,SSW,10.4,-,N/A,,Clear,210,2013-01-15 22:53:00
5:53 PM,21.0,9.0,60,30.12,10.0,SSW,6.9,-,N/A,,Clear,200,2013-01-15 23:53:00
6:53 PM,21.9,10.9,63,30.09,10.0,SSW,9.2,-,N/A,,Overcast,200,2013-01-16 00:53:00
7:53 PM,21.9,12.0,66,30.06,10.0,SW,11.5,19.6,N/A,,Mostly Cloudy,220,2013-01-16 01:53:00
8:53 PM,21.9,12.0,66,30.02,10.0,SSW,15.0,23.0,N/A,,Scattered Clouds,210,2013-01-16 02:53:00
9:53 PM,21.9,12.0,66,29.99,10.0,SW,12.7,-,N/A,,Overcast,220,2013-01-16 03:53:00
10:53 PM,23.0,12.0,63,29.86,10.0,SSW,15.0,23.0,N/A,,Overcast,200,2013-01-16 04:53:00
11:53 PM,21.9,12.0,66,29.82,10.0,SSW,17.3,26.5,N/A,,Overcast,210,2013-01-16 05:53:00